Change the Weather History Date:

Sunday, March 24, 2013

  Actual Average (KHRO) Record (KHRO)
Temperature  
Mean Temperature 34 °F 51 °F  
Max Temperature 39 °F 63 °F 98 °F (1929)
Min Temperature 28 °F 40 °F 16 °F (2002)
Degree Days  
Heating Degree Days 32 14  
Month to date heating degree days 418  
Since 1 July heating degree days 3590  
Cooling Degree Days 0 0  
Month to date cooling degree days 0  
Year to date cooling degree days 0  
Moisture  
Dew Point 31 °F    
Average Humidity 89    
Maximum Humidity 100    
Minimum Humidity 69    
Precipitation  
Precipitation 0.00 in 0.13 in 3.11 in (1935)
Month to date precipitation 2.85  
Year to date precipitation 8.05  
Snow  
Snow 0.00 in 0.00 in 2.50 in (1940)
Month to date snowfall 2.0  
Since 1 July snowfall 11.2  
Snow Depth -    
Sea Level Pressure  
Sea Level Pressure 29.79 in    
Wind  
Wind Speed 7 mph (WNW)    
Max Wind Speed 28 mph    
Max Gust Speed 37 mph    
Visibility 5 miles    
Events Fog , Rain , Snow    
T = Trace of Precipitation, MM = Missing Value Source: NWS Daily Summary

Daily Weather History Graph

Daily Weather History Graph

Search for Another Location

Airport or City:

Trip Planner

Search our weather history database for the weather conditions in past years. The results will help you decide how hot, cold, wet, or windy it might be!

Date:

Astronomy

Mar. 24, 2013 Rise Set
Actual Time 7:10 AM CDT 7:28 PM CDT
Civil Twilight 6:44 AM CDT 7:54 PM CDT
Nautical Twilight 6:14 AM CDT 8:24 PM CDT
Astronomical Twilight 5:43 AM CDT 8:55 PM CDT
Moon 5:00 PM CDT (3/24) 5:16 AM CDT (3/24)
Length of Visible Light 13h 09m
Length of Day
12h 18m
Waxing Gibbous, 92% of the Moon is Illuminated
Mar 24
Waxing Gibbous
Mar 27
Full
Apr 2
Last Quarter
Apr 10
New
Apr 18
First Quarter

Hourly Weather History & Observations

Time (CDT) Temp. Windchill Dew Point Humidity Pressure Visibility Wind Dir Wind Speed Gust Speed Precip Events Conditions
12:15 AM 37.4 °F - 37.4 °F 100% 29.73 in 0.5 mi Calm Calm - N/A Rain Light Rain
12:35 AM 37.4 °F - 37.4 °F 100% 29.75 in 0.5 mi Calm Calm - N/A Rain Light Rain
12:55 AM 37.4 °F - 37.4 °F 100% 29.74 in 0.5 mi Calm Calm - N/A Rain Light Rain
1:15 AM 37.4 °F - 37.4 °F 100% 29.73 in 0.2 mi Calm Calm - N/A Rain Light Rain
1:35 AM 37.4 °F 34.9 °F 37.4 °F 100% 29.72 in 0.2 mi NNW 3.5 mph - N/A Rain Light Rain
1:55 AM 37.4 °F 34.9 °F 37.4 °F 100% 29.75 in 0.5 mi West 3.5 mph - N/A Fog Fog
2:15 AM 39.2 °F - 39.2 °F 100% 29.71 in 0.2 mi Calm Calm - N/A Rain Light Rain
2:35 AM 37.4 °F - 37.4 °F 100% 29.71 in 0.2 mi Calm Calm - N/A Rain Light Rain
2:55 AM 37.4 °F - 37.4 °F 100% 29.71 in 0.5 mi Calm Calm - N/A Fog Fog
3:15 AM 37.4 °F - 37.4 °F 100% 29.69 in 0.2 mi Calm Calm - N/A Rain Light Rain
3:35 AM 37.4 °F 34.9 °F 37.4 °F 100% 29.69 in 0.2 mi South 3.5 mph - N/A Rain Light Rain
3:55 AM 37.4 °F 34.9 °F 37.4 °F 100% 29.65 in 0.2 mi SSW 3.5 mph - N/A Rain Light Rain
4:15 AM 37.4 °F - 37.4 °F 100% 29.64 in 4.0 mi Calm Calm - N/A Rain Light Rain
4:35 AM 37.4 °F 30.3 °F 37.4 °F 100% 29.60 in 1.5 mi ESE 10.4 mph - N/A Rain Light Rain
4:55 AM 39.2 °F 37.0 °F 39.2 °F 100% 29.62 in 1.2 mi SSW 3.5 mph - N/A   Overcast
5:15 AM 39.2 °F 37.0 °F 39.2 °F 100% 29.62 in 2.0 mi SSW 3.5 mph - N/A   Overcast
5:35 AM 39.2 °F 37.0 °F 39.2 °F 100% 29.63 in 3.0 mi SSW 3.5 mph - N/A Rain Light Rain
5:55 AM 39.2 °F - 39.2 °F 100% 29.62 in 3.0 mi Calm Calm - N/A Rain Light Rain
6:15 AM 39.2 °F 37.0 °F 39.2 °F 100% 29.62 in 1.8 mi SSW 3.5 mph - N/A   Overcast
6:35 AM 39.2 °F 35.0 °F 39.2 °F 100% 29.61 in 1.8 mi SW 5.8 mph - N/A   Overcast
6:55 AM 39.2 °F 34.2 °F 39.2 °F 100% 29.61 in 2.0 mi WSW 6.9 mph - N/A   Overcast
7:45 AM 35.6 °F 26.6 °F 35.6 °F 100% 29.62 in 10.0 mi WSW 13.8 mph 21.9 mph N/A   Overcast
8:45 AM 33.8 °F 23.5 °F 32.0 °F 93% 29.62 in 8.0 mi West 16.1 mph 35.7 mph N/A Rain Light Rain
9:45 AM 32.0 °F 21.6 °F 32.0 °F 100% 29.64 in 1.8 mi West 15.0 mph 27.6 mph N/A Snow Light Snow
10:17 AM 32.0 °F 21.2 °F 32.0 °F 100% 29.66 in 7.0 mi WNW 16.1 mph 32.2 mph N/A   Overcast
10:45 AM 32.0 °F 22.5 °F 32.0 °F 100% 29.69 in 5.0 mi WNW 12.7 mph 24.2 mph N/A Snow Light Snow
11:46 AM 32.0 °F 18.1 °F 28.4 °F 87% 29.74 in 2.0 mi NW 27.6 mph 36.8 mph N/A Snow Light Snow
12:47 PM 32.0 °F 18.9 °F 28.4 °F 87% 29.78 in 7.0 mi NW 24.2 mph 35.7 mph N/A Snow Light Snow
1:45 PM 32.0 °F 20.1 °F 26.6 °F 80% 29.81 in 9.0 mi NW 19.6 mph 27.6 mph N/A   Overcast
2:45 PM 32.0 °F 20.8 °F 26.6 °F 80% 29.84 in 3.0 mi NW 17.3 mph 28.8 mph N/A Snow Light Snow
3:45 PM 32.0 °F 20.8 °F 24.8 °F 75% 29.86 in 6.0 mi NW 17.3 mph 36.8 mph N/A Snow Light Snow
4:52 PM 32.0 °F 18.6 °F 24.8 °F 75% 29.89 in 8.0 mi NW 25.3 mph 35.7 mph N/A   Overcast
5:51 PM 32.0 °F 19.2 °F 24.8 °F 75% 29.91 in 10.0 mi WNW 23.0 mph 34.5 mph N/A   Overcast
6:56 PM 30.2 °F 17.8 °F 24.8 °F 80% 29.95 in 10.0 mi WNW 19.6 mph 31.1 mph N/A   Overcast
7:54 PM 30.2 °F 17.1 °F 23.0 °F 75% 29.98 in 10.0 mi NW 21.9 mph 32.2 mph N/A   Overcast
8:46 PM 28.4 °F 15.8 °F 23.0 °F 80% 30.00 in 10.0 mi WNW 18.4 mph 28.8 mph N/A   Overcast
9:15 PM 28.4 °F 16.6 °F 21.2 °F 74% 30.02 in 10.0 mi NW 16.1 mph 26.5 mph N/A   Mostly Cloudy
9:35 PM 28.4 °F 15.8 °F 19.4 °F 69% 30.03 in 10.0 mi WNW 18.4 mph 26.5 mph N/A   Mostly Cloudy
9:55 PM 28.4 °F 18.5 °F 19.4 °F 69% 30.04 in 10.0 mi NW 11.5 mph 21.9 mph N/A   Mostly Cloudy
10:15 PM 28.4 °F 15.1 °F 21.2 °F 74% 30.05 in 10.0 mi NW 20.7 mph 26.5 mph N/A Rain Light Freezing Rain
10:35 PM 28.4 °F 18.0 °F 19.4 °F 69% 30.06 in 10.0 mi NW 12.7 mph 27.6 mph N/A   Mostly Cloudy
10:55 PM 28.4 °F 18.0 °F 19.4 °F 69% 30.06 in 10.0 mi NW 12.7 mph 31.1 mph N/A   Overcast
11:15 PM 28.4 °F 17.5 °F 19.4 °F 69% 30.06 in 10.0 mi NW 13.8 mph 25.3 mph N/A   Overcast
11:35 PM 28.4 °F 17.5 °F 19.4 °F 69% 30.06 in 10.0 mi WNW 13.8 mph 24.2 mph N/A   Overcast
11:55 PM 28.4 °F 19.1 °F 19.4 °F 69% 30.05 in 10.0 mi WNW 10.4 mph 17.3 mph N/A   Overcast